Location: East Fork Observatory
(32.9757°N, 94.4485°W)
Time: 07:15:16
(UTC-06:00)

Hubble Space Telescope - Pass Details

Date: 27 October 2019
Orbit: 536 x 540 km, 28.5° (Epoch: 17 November)

Event Time Altitude Azimuth Distance (km) Brightness Sun altitude
Exits shadow 06:22:37 - 213° (SSW) 2,183 3.6 -15.0°
Reaches altitude 10° 06:24:02 10° 201° (SSW) 1,775 3.3 -14.7°
Maximum altitude 06:26:46 17° 159° (SSE) 1,373 3.2 -14.2°
Drops below altitude 10° 06:29:31 10° 117° (ESE) 1,777 4.6 -13.6°
Sets 06:32:22 0° 97° (E) 2,668 6.4 -13.0°
